RH
13 11 10 9 9 9 9 9 9 9 9 10 11 12 13 14 15 16 15 15 15 17 19 18 21 27 25 25 27 27 29 31 33 33 33 34 32 32 31 27 30 36 36 31 24 31 55 63 49 44 48 49 46 30 31 74 96 81 76 77 83 92 91 80 64 59 64 58 50 40 30 24 18 15 12 11 11 10 11 11 11 10 10 10 9 9
14 13 11 10 10 9 9 9 9 8 8 9 9 10 12 13 16 19 18 19 21 24 28 27 30 36 33 33 35 35 39 44 46 48 48 46 43 39 33 29 35 44 45 39 30 30 39 44 38 36 39 39 36 29 38 77 93 80 76 74 71 73 68 58 53 59 64 59 53 44 36 29 21 16 13 12 11 10 11 11 12 12 12 11 10 10
16 14 13 12 11 10 9 9 9 9 8 8 9 10 11 13 19 25 25 25 28 30 34 33 36 43 41 40 42 42 45 50 56 60 56 52 47 40 34 32 40 48 49 44 36 32 32 31 28 26 27 26 26 30 48 79 88 76 76 77 74 68 56 49 51 60 64 61 55 47 39 32 23 17 14 13 12 11 12 13 14 14 14 13 13 13
16 15 15 14 12 11 11 10 9 9 9 9 9 10 12 16 22 29 32 31 33 35 38 39 42 48 48 45 44 46 49 54 61 64 60 53 46 40 38 40 46 48 45 42 40 36 30 27 26 25 23 23 23 25 38 57 63 63 69 77 76 67 54 49 53 61 65 61 54 47 42 35 27 20 15 14 15 14 14 14 15 15 15 15 15 16
16 16 15 15 14 13 12 12 11 10 10 9 10 10 14 22 28 34 38 35 33 36 39 43 50 55 53 49 45 45 49 56 63 65 64 61 51 44 43 43 47 47 45 43 41 39 32 27 28 30 29 27 24 23 27 35 42 53 66 72 68 59 51 52 61 68 67 60 53 48 45 41 35 26 17 16 18 19 19 18 18 17 17 17 17 17
17 16 16 15 15 15 14 13 12 12 11 10 11 11 15 28 37 40 43 42 38 39 42 44 53 62 58 51 45 40 43 52 60 64 65 64 59 51 46 46 48 50 50 47 45 47 43 34 31 31 32 31 27 23 22 25 32 45 60 65 59 52 50 59 73 76 69 62 55 50 49 47 44 35 22 18 21 24 25 25 23 22 20 20 18 18
19 17 17 16 16 15 15 15 14 13 13 11 12 14 17 30 43 45 44 46 46 46 46 45 53 63 62 56 47 40 45 54 60 66 68 65 61 56 52 52 53 52 52 48 48 53 50 44 40 36 33 31 27 25 26 28 31 40 57 62 57 51 49 62 80 83 75 66 57 56 55 52 53 44 27 24 27 27 28 28 28 26 24 22 20 19
20 18 18 17 16 16 16 16 16 15 15 14 13 17 19 27 42 51 50 51 52 50 51 51 53 60 64 61 53 49 57 66 68 71 73 68 62 58 55 58 59 55 52 47 44 49 51 50 49 47 44 37 31 31 34 35 35 43 61 69 68 59 51 60 77 78 72 66 62 65 64 62 62 49 34 33 35 34 32 31 31 31 28 25 22 20
22 20 19 18 16 17 17 17 17 16 17 17 15 19 24 27 36 49 59 63 58 54 58 59 57 61 65 62 59 58 64 71 73 75 79 76 68 62 59 64 64 57 52 46 40 44 51 55 56 57 55 49 44 42 44 47 47 49 59 70 70 58 50 58 70 71 69 68 69 73 74 73 63 49 44 47 47 44 40 37 34 32 31 28 24 22
23 21 20 19 18 19 19 18 18 17 19 20 21 25 29 31 32 37 53 66 65 61 64 66 63 66 70 67 64 64 68 75 77 76 77 77 73 68 64 66 65 58 53 46 37 39 49 59 65 62 57 55 54 50 50 60 70 71 72 74 68 56 54 61 68 71 69 68 71 74 73 68 58 54 60 64 62 59 57 52 44 36 33 31 27 23
22 22 21 21 21 21 19 19 18 18 18 20 25 30 30 29 27 28 36 49 62 67 69 70 68 69 74 73 68 69 75 84 89 85 81 79 76 72 70 69 66 60 54 44 32 33 42 52 61 63 62 59 52 48 53 66 86 95 90 79 65 57 58 61 62 60 56 63 77 79 71 63 62 65 63 64 72 77 75 64 47 36 31 30 30 26
24 22 22 23 24 25 23 23 23 21 21 22 26 30 32 31 28 29 30 32 43 54 60 70 74 72 74 73 71 74 79 85 91 92 88 81 72 65 65 67 67 61 54 42 29 29 36 43 53 62 64 57 49 56 65 68 83 93 86 74 64 60 58 56 56 53 55 73 89 87 76 69 71 64 52 58 78 84 77 62 48 41 34 29 27 25
30 26 26 27 29 30 29 33 35 32 31 32 34 36 39 42 38 36 37 34 35 38 43 55 65 70 72 72 73 76 82 86 89 92 91 78 61 52 51 54 58 55 47 38 33 36 40 43 50 54 55 55 62 80 81 69 73 76 71 70 68 63 58 58 61 57 60 76 82 79 74 67 64 56 46 59 79 81 76 72 69 64 57 48 36 27
38 34 31 32 38 39 37 41 46 46 44 44 45 45 48 50 48 45 41 37 36 35 36 42 48 56 61 63 65 68 73 80 82 84 87 77 55 39 34 36 41 40 35 35 39 44 43 44 49 51 60 70 77 89 83 69 74 79 77 77 71 63 64 71 75 64 63 75 78 74 70 63 64 60 52 59 72 79 86 88 82 74 68 65 59 51
45 45 40 41 48 50 48 51 53 51 49 48 47 47 50 51 48 49 45 40 38 36 35 37 38 40 44 47 50 52 56 62 66 66 67 62 44 28 25 27 29 28 27 32 38 42 41 44 48 53 73 90 90 90 79 67 78 87 88 83 65 61 72 81 82 72 70 80 78 72 65 59 64 68 64 63 64 73 88 88 77 68 63 61 62 66
48 51 51 56 61 59 59 58 51 49 51 49 45 46 50 49 48 50 49 45 44 41 37 35 34 32 32 34 34 34 35 39 45 44 40 39 31 26 30 32 31 30 31 35 41 47 44 46 57 64 76 93 97 96 82 73 82 86 88 90 80 81 90 85 82 84 85 84 80 80 78 69 63 63 62 62 65 77 88 84 73 65 59 55 58 64
59 61 62 69 72 66 67 63 51 51 58 57 56 54 51 49 48 50 53 52 49 49 45 37 35 34 31 30 29 29 29 28 30 30 31 35 34 35 40 41 42 42 41 41 41 44 41 46 72 87 86 92 99 99 92 89 92 84 81 91 93 92 88 76 75 85 85 80 76 78 81 74 60 50 49 59 79 94 91 79 71 65 60 61 66 70
74 75 72 71 74 72 71 69 61 60 61 65 71 69 61 56 51 50 57 58 51 51 49 40 37 38 36 34 34 35 34 31 33 35 39 45 47 50 51 49 50 47 43 47 48 48 45 44 65 90 96 95 93 93 95 94 91 84 80 87 93 90 84 83 84 83 77 68 60 55 55 51 40 33 36 48 71 87 82 71 67 64 63 69 77 81
83 86 82 74 75 78 73 66 65 66 62 66 78 84 82 77 68 64 64 62 56 55 54 47 45 46 46 46 43 42 43 39 37 39 42 48 53 56 55 54 63 62 59 71 80 82 79 66 65 83 98 99 92 90 91 86 81 81 79 86 99 94 79 76 72 63 57 50 43 40 36 30 23 19 23 32 51 65 65 58 53 50 51 61 80 88
91 94 94 85 81 85 81 70 68 71 68 71 81 90 96 91 81 77 73 68 65 63 59 53 51 51 51 51 47 44 46 47 46 43 41 42 44 45 45 51 68 76 73 81 91 93 92 86 80 84 92 99 100 93 83 75 74 74 66 72 93 91 67 55 51 45 43 39 37 38 32 25 22 18 24 44 61 61 53 47 42 38 38 53 82 92
95 98 99 97 92 92 93 85 77 77 77 81 87 90 97 99 89 81 76 71 66 64 61 55 48 48 49 50 48 45 45 51 59 60 57 55 52 48 46 50 64 79 82 85 90 89 84 85 90 94 98 101 97 88 81 78 74 66 52 49 65 70 55 45 45 42 40 37 37 35 31 32 36 34 36 47 52 43 35 35 34 31 31 50 83 91
92 97 99 100 99 99 99 90 82 84 85 82 85 87 93 99 94 84 80 75 67 63 63 57 50 50 50 50 50 46 41 43 50 52 52 55 60 62 64 65 69 77 81 81 83 84 80 81 88 94 97 93 84 79 84 83 70 57 49 42 44 48 46 45 45 42 39 37 34 31 29 34 40 41 39 40 48 56 51 34 27 32 37 54 86 93
92 97 99 100 100 100 97 88 82 86 86 80 80 83 88 95 92 85 84 82 76 70 66 62 56 52 50 51 52 47 41 38 38 38 37 37 40 47 57 66 70 70 73 77 82 87 89 88 87 86 85 81 76 75 76 72 62 52 47 43 42 45 47 47 46 46 44 39 35 32 29 29 33 39 39 38 50 66 59 33 27 47 61 68 85 91
98 95 96 98 99 97 91 86 83 81 81 82 85 84 85 90 92 90 91 91 89 84 78 73 63 51 48 51 52 51 48 43 38 37 39 39 36 33 37 47 57 64 73 83 89 91 92 89 82 76 76 78 78 74 66 59 54 50 46 44 45 47 50 52 51 50 47 41 34 31 28 26 28 32 34 40 46 49 47 37 33 46 56 59 72 86
99 94 92 94 98 98 89 83 81 78 77 82 86 88 86 84 88 96 99 97 96 94 87 77 62 47 43 46 50 54 51 42 35 32 37 48 53 51 46 42 42 47 57 66 73 76 78 81 79 74 73 77 80 78 69 62 59 56 53 51 50 50 55 60 61 53 41 35 31 27 26 26 26 23 23 39 56 54 51 52 45 40 41 47 66 85
99 98 97 95 94 94 90 84 82 86 90 86 81 84 87 82 84 94 97 97 99 97 88 72 54 39 33 34 39 43 37 26 22 21 25 37 49 56 59 55 49 46 47 51 54 53 53 63 72 72 68 66 68 68 65 66 67 65 61 57 55 56 60 66 70 58 40 33 28 22 23 26 26 23 19 26 43 49 50 53 50 45 47 48 54 62
102 101 100 98 94 91 89 87 86 88 92 91 86 89 92 89 91 96 97 98 99 95 83 64 47 35 29 27 27 27 23 18 16 15 15 19 25 31 37 43 44 43 42 41 40 38 37 41 49 56 60 64 67 65 59 56 57 61 66 66 62 60 60 66 73 66 48 36 25 15 20 29 28 25 19 16 27 42 54 60 58 54 56 56 54 53
103 103 101 99 95 91 87 86 89 88 86 90 96 100 99 96 96 98 100 101 97 91 81 63 46 37 32 29 27 24 23 22 21 19 18 16 16 16 17 20 21 22 23 26 30 34 35 33 32 34 44 56 65 66 64 61 62 68 77 80 77 72 68 72 80 74 54 38 25 14 16 28 30 25 17 13 22 37 49 63 69 61 56 57 59 60
102 101 100 98 95 94 91 90 94 95 92 94 99 101 100 98 96 96 97 98 94 86 75 59 46 40 36 33 31 30 29 28 27 26 25 23 20 19 19 18 16 15 15 16 21 29 37 40 38 36 39 47 52 51 54 62 72 83 85 81 83 86 85 88 92 80 58 44 37 27 19 21 25 22 14 14 25 36 41 55 68 59 44 42 47 51
100 100 100 100 100 100 98 96 97 98 96 97 100 103 104 100 95 94 94 91 86 77 64 52 45 42 40 39 38 37 36 36 35 33 32 30 29 27 25 23 21 20 18 16 16 20 28 36 38 37 39 49 58 60 57 55 59 68 71 73 85 96 99 101 97 81 64 57 51 41 30 25 24 22 16 12 16 21 24 30 38 39 35 35 36 38
100 101 100 99 101 101 100 100 101 100 98 96 96 100 103 100 96 95 93 88 80 72 64 57 52 49 46 46 45 44 43 41 40 39 37 35 34 33 31 29 27 26 26 24 21 18 18 21 23 24 25 33 46 55 60 61 56 52 53 65 87 101 101 99 94 82 71 65 56 46 39 36 31 27 24 19 16 16 22 27 31 37 43 44 42 40
97 100 102 101 100 101 101 101 101 100 100 96 90 89 91 90 89 85 79 73 65 60 57 54 52 49 46 44 42 41 40 38 37 37 35 34 34 33 33 31 29 28 29 30 30 28 27 24 22 20 18 18 21 28 40 54 57 50 43 47 66 83 88 86 84 78 69 61 55 50 47 47 43 37 31 26 20 17 21 30 40 46 48 48 47 46
91 95 100 100 100 101 100 100 100 100 100 96 89 86 84 78 72 64 56 52 48 44 42 41 41 41 39 38 36 33 33 33 33 34 35 35 34 34 35 35 34 33 33 34 35 34 33 30 25 23 22 21 19 18 20 27 32 32 30 28 35 51 64 68 69 69 64 58 54 50 46 45 46 46 42 36 29 23 23 32 46 56 60 60 58 53
97 98 100 100 100 102 99 98 98 93 87 83 79 77 73 66 60 54 48 47 46 42 36 30 29 30 31 33 35 36 36 35 33 34 37 42 44 46 47 47 45 42 40 39 36 32 28 25 22 22 24 28 29 27 23 22 20 17 19 24 32 43 55 61 65 66 63 57 52 48 45 47 51 54 55 51 43 36 34 37 45 55 63 67 66 62
86 90 93 93 90 86 87 93 96 84 72 71 71 67 64 61 57 53 50 47 45 40 32 25 22 22 23 27 34 43 48 49 49 54 62 69 74 78 82 82 77 73 68 60 49 39 31 27 32 44 54 60 60 54 48 46 42 36 31 33 42 50 52 52 55 58 59 60 64 62 58 58 60 58 60 65 61 50 41 36 35 39 45 52 57 58
59 59 62 69 69 65 70 85 93 83 71 69 67 62 58 57 52 48 44 40 37 31 24 20 19 20 21 23 29 41 51 56 64 74 84 90 93 96 97 94 88 82 75 65 53 44 38 35 43 57 65 65 62 61 65 71 72 68 57 48 53 63 62 58 62 67 71 76 79 73 65 62 61 54 56 67 67 54 46 45 47 52 56 60 63 64
62 60 60 72 81 82 86 92 93 84 73 66 63 59 57 54 50 45 41 38 35 30 26 24 24 26 27 27 32 41 51 57 62 68 71 75 79 81 79 76 72 66 59 54 51 48 45 42 42 45 46 46 47 54 68 81 84 79 66 59 73 89 90 87 90 92 89 87 84 81 80 80 77 69 69 77 78 73 73 75 76 79 81 79 78 77
85 88 89 95 99 99 100 99 90 78 68 62 60 58 56 53 49 45 42 40 38 37 39 41 41 40 37 34 38 47 59 69 75 78 78 79 82 82 79 77 74 70 68 67 66 65 60 54 50 50 48 47 47 48 58 70 75 74 70 73 88 101 102 98 99 98 91 85 87 94 99 99 96 94 94 94 94 94 96 96 97 97 95 90 84 79
89 95 96 94 92 89 89 85 76 68 63 60 57 53 51 50 47 44 42 39 37 40 44 47 49 50 49 46 45 48 55 65 75 83 87 89 90 87 85 83 79 75 77 78 74 71 67 59 56 55 48 41 38 36 38 44 49 52 58 66 75 82 81 79 85 94 93 90 93 97 100 101 100 102 100 96 93 93 92 94 97 97 93 86 77 73
67 75 77 75 73 72 70 67 63 59 57 55 53 52 51 51 50 48 46 43 42 44 45 44 44 44 44 44 43 42 44 49 57 64 67 68 67 65 66 69 66 62 67 70 67 64 63 62 61 62 58 52 48 43 39 40 41 42 46 49 49 48 45 45 56 70 80 91 99 99 98 101 102 101 101 98 96 96 91 84 79 79 80 79 73 70
69 76 79 78 77 76 74 73 71 67 65 66 69 71 70 70 70 69 67 67 68 68 66 63 61 59 57 57 58 55 52 54 59 63 62 62 61 58 59 62 61 59 62 66 67 68 72 75 76 76 75 74 73 70 65 65 66 63 56 49 44 40 36 33 36 40 49 72 96 102 99 99 99 99 101 99 97 99 97 87 77 75 79 81 78 78
85 88 90 90 91 91 91 91 90 87 83 82 86 90 90 91 92 90 88 89 91 93 93 91 90 90 90 91 92 90 86 86 89 90 87 87 87 85 82 81 81 82 83 83 83 84 85 86 85 82 79 80 84 86 81 75 72 66 56 49 49 51 47 39 35 32 33 48 75 95 102 104 102 101 101 100 99 99 100 96 91 88 89 88 85 85
64 68 70 70 72 74 76 77 79 80 80 80 85 89 90 91 92 92 93 96 96 96 99 99 98 99 100 100 101 101 100 99 101 102 101 100 100 100 99 97 97 99 98 95 95 96 95 95 93 88 82 78 78 78 74 68 67 63 57 53 51 50 47 44 42 40 37 37 46 62 77 87 94 96 95 94 93 95 98 100 99 97 93 86 76 70
31 35 39 43 45 48 51 54 57 60 63 68 73 78 82 89 96 97 97 100 100 99 101 101 99 99 101 101 101 101 100 98 98 99 99 98 98 98 98 97 98 100 99 96 95 96 96 97 97 95 91 87 82 78 73 71 72 72 70 70 67 61 57 56 54 52 51 50 50 51 55 61 67 70 69 66 65 68 75 81 82 80 75 68 59 53
21 22 24 29 34 36 43 53 62 66 70 73 75 76 78 85 94 99 99 100 100 100 101 102 100 98 96 94 93 91 90 89 91 93 94 94 94 95 94 92 91 93 94 94 93 92 92 92 92 92 93 93 92 90 85 83 83 83 81 80 80 78 73 70 67 63 62 62 64 66 67 67 68 68 68 67 64 63 65 67 68 65 60 55 52 50
24 24 24 28 31 32 40 56 72 84 91 93 93 93 93 93 96 99 100 100 100 101 101 101 102 101 99 96 94 91 88 84 82 82 80 79 82 88 92 95 95 94 94 94 92 91 90 89 89 89 90 92 94 94 93 90 88 89 89 89 88 87 82 76 72 71 70 69 69 69 70 72 73 74 76 75 73 71 71 70 69 65 60 55 52 50
29 29 29 30 32 34 40 52 65 78 88 94 95 96 98 100 101 100 100 99 99 99 100 99 99 100 100 99 99 98 96 92 90 87 82 78 79 81 83 87 89 89 87 85 82 80 78 77 78 80 82 85 89 89 88 85 80 78 79 82 85 89 89 85 79 74 70 67 64 61 59 59 62 66 69 71 71 69 66 64 62 60 57 53 50 47
35 34 33 33 33 34 37 41 46 54 64 74 81 85 86 89 93 98 101 102 101 100 101 101 102 102 102 102 101 101 100 100 98 95 92 87 81 72 65 62 60 57 53 49 47 46 47 49 51 55 58 61 64 66 65 63 61 58 56 56 59 63 66 67 65 62 58 55 53 50 48 47 49 51 53 55 57 57 56 54 52 48 44 42 40 38
37 37 37 37 36 35 36 36 35 37 40 45 51 55 57 59 62 68 75 80 82 83 83 84 84 86 87 88 88 86 84 81 78 74 71 67 61 53 47 42 39 35 33 31 29 28 27 27 28 30 32 33 35 36 36 36 36 38 39 40 40 39 38 38 38 40 41 43 43 42 41 39 38 37 37 37 38 40 42 42 40 39 37 34 32 31
31 32 33 34 34 35 35 35 35 35 35 35 35 36 38 38 38 39 41 43 45 46 46 46 46 46 47 47 47 46 45 43 42 40 38 37 35 33 32 30 29 29 29 29 29 29 28 27 26 25 24 24 23 23 23 24 25 26 27 29 30 30 29 28 27 28 30 33 36 37 36 34 32 29 28 27 27 27 28 28 28 29 29 29 28 29
26 26 26 26 26 27 27 27 27 28 28 28 28 28 28 29 29 29 29 29 29 29 29 28 28 27 26 26 26 25 25 24 24 23 23 23 22 22 22 22 22 22 22 22 22 22 22 22 22 22 21 22 21 21 20 20 21 21 21 22 23 24 24 23 23 24 25 27 30 32 33 33 33 32 30 28 26 25 24 23 23 23 23 25 28 30
Wind_Speed
16 15 15 16 18 19 19 20 22 22 22 22 22 23 23 23 23 22 22 21 20 20 20 20 21 20 20 20 20 19 20 20 18 17 17 18 20 21 22 21 18 14 13 14 15 15 11 12 11 10 10 10 12 13 13 12 19 11 5 6 7 12 13 11 9 5 5 6 8 9 10 11 12 12 12 13 14 15 16 17 17 18 18 18 18 17
17 17 18 19 20 20 20 21 21 21 20 21 20 21 22 23 23 21 21 21 21 21 21 21 21 20 18 18 18 18 18 16 13 13 14 16 17 17 18 15 11 9 10 12 13 13 12 12 12 11 11 11 11 11 11 7 16 9 2 3 4 7 9 10 7 5 7 8 10 10 11 11 12 12 12 13 14 15 16 16 17 17 17 17 17 17
19 20 20 20 20 20 19 19 20 19 19 19 19 20 22 23 23 22 23 23 22 22 22 23 22 19 17 18 18 18 18 15 14 14 15 17 16 14 13 9 6 6 8 11 12 13 13 13 13 13 12 11 9 9 8 8 13 11 7 6 7 9 12 10 7 6 8 10 11 12 11 12 12 12 12 12 13 14 15 16 16 16 16 16 16 16
20 21 21 20 20 19 19 19 19 18 18 18 18 20 23 24 24 24 25 25 24 23 23 23 22 20 19 19 20 20 19 17 15 15 16 16 15 13 11 8 7 7 7 8 10 12 14 13 13 14 14 12 10 9 10 12 14 14 12 10 11 14 15 11 8 8 10 12 14 14 13 12 12 12 11 11 12 13 14 14 14 15 15 15 15 16
21 21 21 21 20 20 20 20 19 18 18 17 18 21 24 25 25 25 26 27 27 25 24 23 23 21 20 21 22 22 21 19 16 15 15 16 15 13 11 10 10 10 10 9 8 8 11 12 13 15 14 13 12 11 12 14 15 14 12 12 14 15 13 10 8 9 12 14 15 15 14 14 13 12 11 10 10 12 13 14 14 14 15 15 15 16
22 21 21 22 22 21 21 21 20 19 19 18 19 21 24 26 26 26 26 27 27 26 25 23 23 22 22 22 23 23 22 20 18 16 16 16 16 14 12 12 13 13 13 11 8 7 7 9 12 14 15 14 13 14 14 14 14 14 14 15 16 14 11 9 9 11 13 14 16 16 16 16 14 12 11 10 9 10 11 13 14 15 15 15 16 16
22 22 23 23 23 22 22 21 21 21 20 21 21 22 25 27 28 27 27 27 27 27 25 24 23 24 25 24 23 23 21 19 18 17 16 16 16 15 15 15 15 16 16 14 9 6 7 9 11 13 14 15 15 16 16 15 15 15 15 16 16 13 10 8 10 13 15 16 17 17 17 17 15 13 12 10 9 9 10 11 13 15 15 16 16 16
24 24 24 24 24 23 22 21 21 22 22 23 24 24 25 26 28 29 29 29 28 28 27 25 24 25 26 26 25 24 21 19 18 18 17 16 16 17 17 18 19 18 17 15 10 7 9 12 14 15 15 15 16 17 17 17 16 16 15 15 15 13 10 9 11 14 16 17 17 17 18 17 15 14 12 9 9 10 10 10 11 13 15 16 16 17
25 26 26 26 26 24 23 22 22 22 23 24 24 26 26 26 28 30 31 31 30 29 28 28 27 27 28 28 27 25 23 22 21 20 20 19 19 19 19 20 22 21 19 17 12 9 11 13 17 18 17 16 16 17 18 19 19 18 16 15 15 15 12 11 12 14 16 16 16 16 17 16 15 13 11 9 10 11 12 11 11 12 14 16 17 18
27 28 28 28 27 25 24 24 24 24 24 24 24 25 26 27 27 30 32 32 32 31 30 30 29 28 29 29 29 27 25 24 23 23 22 22 22 22 23 24 25 25 23 20 15 12 13 14 17 20 19 17 16 17 19 21 21 20 18 17 17 17 15 13 14 15 16 16 15 14 15 15 14 13 11 11 12 13 14 14 13 13 14 16 18 18
29 29 29 29 28 27 26 26 26 26 26 26 25 25 26 28 28 30 32 33 34 34 33 33 32 31 31 31 30 29 28 26 25 25 24 24 24 25 26 27 28 28 27 24 18 16 17 17 19 21 21 20 20 20 21 21 22 22 20 19 19 18 17 15 16 16 16 15 14 14 14 14 14 12 12 13 14 15 16 16 15 14 14 16 18 19
29 30 30 30 29 28 27 26 26 27 26 26 26 25 25 27 29 31 32 33 35 36 35 35 35 34 33 34 33 32 31 30 28 27 26 26 25 26 27 28 30 30 30 27 22 20 21 22 22 23 25 26 25 24 19 16 17 21 21 21 21 19 17 17 17 16 15 14 13 13 14 14 14 13 13 14 14 15 15 16 15 16 16 17 18 19
29 30 31 31 30 29 27 26 26 26 26 27 26 25 25 27 28 29 31 32 33 34 35 36 36 36 36 36 35 35 34 34 33 32 29 27 26 27 28 29 30 30 31 29 26 25 27 27 25 26 29 28 24 20 16 12 14 19 20 20 19 19 17 16 17 16 15 15 15 14 14 14 14 14 13 12 13 14 14 15 17 18 18 18 19 20
29 30 31 31 30 29 28 26 25 26 26 26 24 23 24 25 26 26 27 30 30 31 32 33 35 36 37 37 36 35 36 36 36 35 33 32 31 30 31 32 31 32 32 30 29 28 28 28 26 27 29 27 24 24 21 16 18 23 22 19 19 19 18 17 17 17 15 16 16 17 17 17 17 16 13 11 12 14 15 17 18 19 19 19 20 20
29 30 30 29 28 27 26 25 25 25 26 25 23 23 23 23 23 22 23 25 26 28 29 30 33 34 35 35 34 33 34 35 36 35 34 34 33 32 32 33 33 32 31 29 29 29 28 27 26 26 27 25 24 24 23 18 17 19 22 24 24 22 20 18 18 16 16 17 18 19 20 20 19 17 15 14 14 14 15 16 18 19 19 20 20 20
28 29 29 27 26 26 25 24 24 24 24 24 24 23 22 22 22 21 21 23 24 25 27 28 30 31 32 32 32 32 31 33 35 34 33 33 31 30 30 31 31 32 31 30 31 33 31 29 28 28 28 25 21 18 17 17 13 10 16 23 24 21 17 16 17 17 15 15 16 17 17 17 16 15 16 19 18 15 14 15 17 19 19 20 20 19
27 28 28 27 25 26 25 23 23 23 22 23 24 22 20 20 21 21 21 23 24 25 26 27 28 28 28 29 29 29 29 31 32 32 31 29 27 27 27 28 29 31 32 32 33 33 33 32 30 30 30 27 22 18 17 16 12 10 12 15 18 19 15 11 13 13 12 12 12 13 13 13 14 16 18 19 16 14 14 15 17 19 19 19 19 19
26 26 28 28 26 25 25 23 23 23 23 23 22 21 20 20 20 21 22 24 25 25 26 27 27 26 27 27 26 26 26 28 29 29 27 25 25 25 25 26 29 31 32 34 35 33 32 32 28 27 29 26 19 17 17 16 15 15 14 13 15 18 17 12 9 10 10 11 12 12 14 15 16 17 18 18 16 14 14 15 16 18 18 18 17 17
28 25 27 29 27 26 26 24 23 24 23 23 21 21 21 21 21 22 22 23 24 24 24 25 25 24 24 23 23 22 22 24 26 27 25 24 23 24 25 26 28 29 31 33 33 29 26 28 27 26 29 28 22 18 16 16 16 16 15 14 12 12 13 13 10 10 10 10 11 12 13 14 14 15 16 16 15 14 14 14 16 18 19 18 17 17
28 25 24 26 27 26 26 25 24 23 23 23 22 22 24 23 23 22 22 23 23 23 23 22 22 21 20 19 18 17 17 18 21 23 24 24 24 24 25 27 26 24 25 26 29 25 23 24 27 30 32 34 31 25 20 18 19 18 17 15 10 5 5 7 7 8 9 10 11 13 13 13 12 13 13 13 12 12 13 14 16 18 18 18 17 17
28 25 22 23 24 25 25 24 23 22 23 24 24 24 26 27 26 24 24 23 23 23 23 22 21 19 18 17 16 15 14 14 15 17 18 20 22 23 24 25 25 22 20 22 26 27 26 23 23 26 29 30 29 24 20 20 21 21 20 19 16 12 9 6 7 8 9 11 13 13 13 12 12 12 12 12 13 14 15 15 16 17 17 16 16 16
28 26 24 23 23 24 24 25 24 23 24 25 25 25 26 27 27 26 26 26 25 24 24 23 21 19 18 18 17 16 15 15 15 15 16 17 19 20 22 23 24 24 22 23 26 27 25 23 22 23 24 25 25 23 22 22 22 22 20 20 20 17 13 10 9 10 11 12 13 14 14 14 14 14 14 14 15 15 15 15 16 15 15 15 15 15
30 28 28 28 26 25 25 26 26 25 25 26 26 25 25 26 27 27 27 27 27 26 24 23 21 20 20 20 20 18 17 16 16 16 17 18 19 20 22 23 24 24 24 23 23 23 23 23 23 24 24 23 22 22 23 24 23 22 21 20 19 17 15 14 13 12 12 13 14 14 14 14 14 15 15 15 15 16 16 16 16 15 14 14 14 14
31 31 32 32 30 29 27 27 28 28 28 27 27 27 27 28 29 29 29 29 29 28 26 24 23 22 21 21 22 21 19 18 18 18 18 18 19 20 22 23 23 23 22 21 20 21 22 22 21 21 21 20 21 21 22 23 22 21 21 21 20 19 18 16 15 15 14 14 14 14 15 14 14 14 14 14 16 17 16 15 15 15 15 15 14 16
31 31 33 34 33 31 31 30 30 29 30 30 29 30 30 30 30 30 30 30 31 30 27 26 25 23 22 23 23 22 23 22 22 21 20 19 19 19 20 22 23 24 23 22 20 20 21 21 20 19 17 17 18 20 21 21 20 20 20 21 22 22 21 19 18 18 17 16 16 16 16 16 15 15 14 14 14 15 15 14 15 16 16 16 17 18
31 29 31 33 33 32 31 30 30 29 31 33 33 33 33 33 33 33 32 31 30 29 29 28 27 25 25 25 24 24 24 24 23 22 21 20 20 20 19 20 21 22 23 23 22 22 22 21 20 20 19 19 19 20 21 22 23 24 24 25 26 26 25 24 22 21 20 19 19 18 18 17 17 16 15 14 15 17 18 17 16 16 16 17 18 19
31 30 31 33 33 32 31 31 31 30 32 34 35 35 35 34 33 33 32 31 30 29 29 30 28 27 26 26 26 25 25 24 24 23 23 23 22 22 22 22 22 22 23 24 24 24 24 24 24 23 22 21 22 22 22 24 25 26 27 28 30 30 30 29 27 24 22 21 21 21 20 19 18 17 17 16 17 18 19 18 16 15 16 17 19 20
29 30 32 33 34 35 34 35 35 34 34 36 35 34 34 34 33 32 31 31 31 31 31 31 30 28 27 27 27 27 26 26 26 26 26 26 26 25 25 25 25 25 25 26 26 25 25 25 26 26 25 24 24 23 22 24 26 28 29 30 31 33 33 31 29 26 24 23 24 23 22 21 21 21 21 20 19 19 19 19 17 15 16 18 20 20
28 28 29 30 32 33 34 36 37 36 36 37 36 34 34 33 33 33 33 33 33 34 33 32 31 31 30 29 29 28 28 28 28 28 29 29 29 28 28 28 28 28 28 28 27 26 25 24 24 25 25 26 25 24 24 25 27 29 30 32 35 36 33 31 30 28 27 27 27 26 25 24 25 26 26 25 23 21 21 21 21 20 21 21 21 22
29 29 29 29 29 29 29 31 32 32 33 33 32 30 30 30 31 30 30 31 32 33 34 33 33 33 32 32 31 31 32 32 32 32 32 32 33 33 33 33 33 32 32 31 30 29 27 26 25 25 25 26 26 26 27 28 29 30 30 31 35 36 33 31 31 31 31 31 31 30 30 30 30 31 30 29 27 26 26 25 26 26 25 24 23 24
32 31 31 31 30 29 28 29 29 29 29 30 30 28 27 29 30 29 28 29 31 32 33 34 34 34 35 35 36 37 37 37 36 37 37 37 37 37 37 38 38 37 36 35 34 33 32 31 31 30 30 30 30 31 32 33 32 33 31 29 29 32 32 31 32 33 34 35 35 35 34 34 34 35 34 33 32 31 29 28 27 27 27 26 26 25
36 35 34 33 32 32 31 31 32 31 30 31 32 31 31 32 33 34 35 36 37 37 38 38 39 39 40 41 42 43 43 42 42 42 41 40 40 40 40 40 40 40 40 39 37 36 34 34 34 35 35 36 36 36 36 36 35 36 36 34 32 33 35 35 36 37 39 40 40 39 38 37 37 37 37 36 35 35 33 31 30 29 30 30 29 28
39 40 40 39 37 36 36 36 36 36 36 36 36 36 36 37 38 40 41 42 42 41 40 40 40 41 42 43 43 44 44 45 45 45 44 43 42 42 41 41 41 41 41 41 40 39 39 39 38 38 38 39 39 39 39 39 39 39 39 39 39 38 38 39 39 40 42 43 43 42 42 41 41 40 39 38 37 36 35 34 34 33 33 33 32 32
39 39 40 41 40 39 39 39 40 42 43 43 42 42 42 43 44 44 45 44 43 42 40 39 39 40 41 42 43 44 45 46 46 46 45 45 44 43 43 42 42 42 42 42 43 43 43 42 41 40 39 39 39 40 41 41 41 40 40 40 40 39 39 40 41 42 43 44 45 45 44 44 43 42 41 40 38 36 36 37 37 37 37 36 35 34
42 42 41 42 41 41 41 41 42 44 45 44 45 46 46 46 47 47 47 47 46 44 42 40 39 40 41 42 44 44 46 47 47 47 46 45 44 43 42 41 42 42 43 44 45 45 44 42 40 38 37 37 36 36 37 38 39 38 38 38 38 39 40 42 43 43 43 43 44 43 43 43 43 43 43 42 40 40 41 42 42 42 41 40 39 38
46 47 46 45 45 44 44 44 44 45 44 44 45 45 46 46 47 48 48 47 46 44 42 40 38 38 39 41 43 44 44 45 46 47 47 46 46 45 45 45 45 46 47 47 48 47 44 41 39 39 39 38 37 36 35 36 37 37 36 36 37 39 40 40 41 41 41 41 41 42 43 44 45 45 45 44 44 44 44 43 43 43 42 41 41 40
45 46 46 46 45 45 45 45 45 45 45 45 45 44 44 44 44 44 43 42 40 39 38 37 37 37 37 38 40 42 43 43 44 45 46 46 47 47 47 47 48 48 48 48 48 48 46 44 43 43 44 42 41 40 39 37 37 38 38 38 36 35 34 34 35 37 38 38 38 39 40 41 41 41 40 41 42 42 42 42 42 42 42 42 42 42
43 44 45 45 45 45 45 45 46 46 46 45 44 44 43 42 41 40 39 38 38 37 36 36 36 36 37 37 38 40 42 43 43 44 45 45 45 45 45 46 46 46 46 45 45 45 45 44 43 43 43 43 43 43 42 41 41 39 38 38 37 35 34 34 35 35 34 34 35 36 37 37 37 37 37 38 39 40 41 41 42 42 43 44 44 44
43 43 44 45 46 46 46 46 46 45 44 44 43 43 42 42 41 40 39 39 38 38 37 36 36 36 37 37 39 40 41 43 44 45 45 45 45 46 46 46 46 46 45 45 45 45 46 47 47 47 48 48 49 49 48 48 48 47 44 42 43 44 45 44 42 36 32 32 34 35 35 35 35 35 37 39 41 42 43 44 45 46 47 47 46 46
44 44 44 45 46 46 46 46 46 46 45 44 43 43 43 42 41 41 41 40 39 39 39 39 39 40 41 42 42 42 43 44 45 46 47 47 48 48 48 48 49 50 49 49 50 51 51 52 52 52 52 52 52 52 52 52 52 52 52 51 52 53 54 53 50 45 39 38 38 37 35 33 33 34 35 36 37 39 42 45 48 48 49 48 48 47
44 44 44 45 45 46 46 47 47 47 46 45 44 44 43 43 42 42 42 41 40 40 40 41 41 42 42 42 42 42 43 43 44 45 46 48 49 50 50 50 51 52 52 53 53 54 53 53 53 53 53 52 51 50 50 50 49 49 51 53 54 54 55 55 53 51 48 47 48 46 43 40 38 37 38 38 38 39 41 44 47 47 46 46 46 46
42 43 43 43 44 44 45 46 46 46 46 45 44 44 42 41 40 39 37 36 34 34 35 36 37 37 37 36 35 36 37 38 39 40 41 42 44 46 48 48 47 48 49 50 51 52 52 52 53 54 52 50 48 47 48 49 49 50 52 54 53 53 54 54 54 53 52 52 54 54 53 51 48 46 45 45 45 45 46 47 48 49 49 48 49 49
40 41 41 41 41 41 42 43 43 43 43 42 41 40 39 37 35 34 33 32 32 30 29 30 32 34 34 34 35 36 37 39 41 41 42 42 43 44 45 44 43 44 45 45 46 46 46 47 49 51 52 51 51 51 51 51 52 52 53 54 55 55 55 55 55 56 56 55 56 58 59 59 58 58 56 54 53 53 53 53 54 55 56 56 57 57
38 39 40 39 39 39 39 39 39 39 39 38 37 36 35 33 32 32 32 33 34 34 33 33 35 36 35 35 36 38 39 41 43 45 46 47 47 47 48 47 47 48 48 48 48 48 47 47 48 49 50 51 51 52 52 53 53 52 52 52 53 54 55 55 55 55 55 56 56 57 59 60 61 62 62 62 60 59 59 60 61 61 61 60 60 59
35 36 37 37 37 37 37 36 36 37 36 35 35 35 34 34 33 34 34 34 35 37 37 39 40 42 42 42 42 42 42 43 45 46 47 48 49 50 51 52 53 54 54 53 53 53 53 53 53 53 53 53 53 53 53 54 53 54 54 54 54 54 54 55 55 54 54 55 55 55 56 57 59 59 60 61 60 59 59 60 61 61 61 60 59 58
31 32 33 34 34 35 36 36 36 35 35 34 34 34 34 35 36 37 38 39 39 38 38 39 41 42 43 44 45 45 46 47 48 49 50 50 50 51 52 53 55 56 56 56 57 57 57 57 57 57 56 56 57 57 57 57 57 57 57 58 58 58 58 58 58 58 57 57 57 57 57 57 57 57 58 58 58 58 57 57 57 58 59 59 59 58
27 28 29 30 31 32 34 35 36 37 37 38 38 38 37 38 39 39 40 42 42 43 43 42 43 44 45 46 47 47 48 50 51 53 54 54 55 56 56 57 58 59 60 61 62 62 62 62 62 62 61 61 61 61 61 61 62 62 63 63 63 63 63 63 64 63 63 63 63 63 63 62 61 60 59 59 58 58 57 57 57 57 58 58 58 58
24 25 26 27 28 29 31 33 34 36 38 40 41 43 43 43 44 45 46 46 47 47 48 48 49 50 51 52 53 54 55 56 57 58 59 61 61 62 62 61 61 62 62 63 63 64 64 64 64 64 64 64 65 65 65 65 65 66 66 67 67 67 67 67 67 67 67 67 67 66 66 65 64 62 61 61 60 59 59 58 58 58 58 58 58 58
20 21 22 23 25 27 28 30 31 32 34 36 38 41 42 44 45 47 48 50 51 52 53 54 55 56 57 58 59 60 60 61 62 62 61 62 62 61 61 60 60 60 60 60 60 61 61 61 61 61 62 62 63 64 64 64 64 64 65 65 66 67 68 67 67 66 66 66 66 66 65 65 64 64 63 62 61 60 59 59 59 58 58 57 57 56
16 18 18 20 22 23 25 27 28 29 31 33 34 36 37 39 40 42 43 45 47 48 49 50 51 53 53 54 55 56 56 56 57 57 57 58 58 58 58 58 58 58 58 58 59 59 59 60 60 60 60 60 60 61 61 61 61 61 62 62 63 64 65 65 65 65 64 64 64 64 64 64 63 63 62 62 61 60 59 58 58 57 56 55 54 53
17 18 19 20 21 22 23 24 26 27 29 30 31 32 34 35 36 38 39 40 41 42 43 44 46 47 48 48 49 50 50 51 52 52 53 54 55 55 56 56 56 56 57 58 58 59 59 59 60 60 60 60 60 60 60 60 60 61 61 62 62 63 63 64 64 64 63 63 62 61 61 61 61 60 60 60 59 59 58 57 56 55 53 52 51 50
Wind_Direction
246 242 237 237 235 233 231 230 232 234 235 234 233 233 235 236 236 236 239 239 234 230 231 232 230 230 235 239 241 243 246 250 252 251 249 250 252 253 252 251 249 248 251 254 253 259 297 318 294 273 267 277 283 287 305 260 210 195 175 181 201 202 211 240 248 258 276 272 271 270 272 271 270 269 268 269 268 267 266 265 266 265 263 261 260 259
246 239 234 232 232 232 232 233 235 234 235 235 234 234 234 233 229 227 230 231 228 225 226 230 228 226 231 238 239 239 240 241 242 242 244 248 253 256 255 248 238 238 246 250 252 260 280 296 291 280 271 276 284 294 312 243 203 204 181 186 204 200 222 246 251 268 272 270 274 275 275 273 272 272 274 275 272 271 268 265 264 263 263 262 261 260
243 241 238 236 234 234 234 236 238 238 238 238 235 232 231 229 224 219 223 225 226 225 225 231 232 226 227 231 232 231 228 224 222 227 236 242 246 250 249 239 232 249 257 259 260 263 273 284 289 287 283 282 286 288 287 239 228 254 268 249 255 261 264 261 256 258 255 260 265 266 269 268 270 272 275 277 276 272 268 265 263 262 264 265 265 266
244 243 243 242 239 237 235 236 238 239 240 238 233 229 227 227 223 217 218 222 225 225 226 232 235 231 227 226 225 225 223 221 221 230 241 244 243 242 243 246 260 270 276 278 274 268 270 277 282 285 286 285 286 279 265 252 253 266 270 261 256 258 259 253 249 247 247 253 257 260 262 262 264 266 269 274 274 271 268 267 266 266 267 267 268 268
245 246 246 245 243 241 238 236 237 237 237 235 230 227 224 224 224 219 218 222 226 227 227 231 234 233 229 226 224 225 228 231 235 241 250 253 251 246 247 255 267 276 283 289 293 286 277 275 277 279 282 285 285 279 269 262 261 263 262 256 251 249 245 241 241 242 248 254 256 258 259 258 259 262 266 268 269 272 273 274 273 272 272 271 270 269
246 247 248 247 244 243 241 238 238 236 234 230 227 226 224 222 224 223 221 224 229 230 229 231 231 230 231 230 231 235 239 242 245 248 252 256 257 255 257 264 271 279 284 286 296 305 293 280 272 271 273 277 280 278 271 263 260 259 256 253 252 249 243 241 242 245 254 259 260 261 259 257 259 264 267 268 272 278 280 280 277 274 273 272 271 269
248 248 248 248 247 245 243 241 241 239 234 229 225 225 225 222 223 227 227 227 229 231 231 233 231 230 233 236 241 246 250 253 255 256 254 255 259 263 267 271 275 280 283 283 287 301 299 287 277 270 267 266 267 268 265 260 255 251 250 253 257 255 250 244 241 247 256 260 262 263 260 257 258 263 265 268 279 285 285 283 280 276 273 272 270 268
248 248 248 248 248 246 243 242 241 241 238 233 229 228 227 225 223 227 231 230 230 232 233 234 232 232 234 238 243 247 251 255 260 262 261 259 259 262 267 273 277 281 282 279 280 290 291 287 282 274 265 261 261 263 265 265 260 249 243 246 253 258 259 252 246 250 254 256 260 262 262 259 254 253 258 266 279 285 287 286 285 281 276 273 270 267
247 248 248 249 248 245 242 241 240 240 239 236 233 231 230 230 227 227 231 232 233 235 234 235 235 233 234 239 243 246 250 252 255 258 260 262 263 265 270 274 277 280 280 276 278 283 282 281 278 272 268 266 264 266 268 268 265 258 249 240 244 252 255 251 248 249 250 252 257 259 260 256 245 242 252 266 276 280 283 283 285 286 281 276 271 267
244 246 247 248 246 244 242 240 239 238 237 236 235 232 233 235 235 233 232 232 235 237 236 237 238 233 232 239 244 246 250 253 257 259 259 261 265 269 273 274 276 279 279 276 274 273 271 273 273 270 268 264 261 260 260 261 260 257 250 239 236 242 246 245 247 249 251 253 255 254 251 244 236 238 256 275 279 279 280 279 278 279 281 277 271 266
242 244 245 244 244 244 243 242 241 241 239 238 237 235 236 239 241 241 237 235 235 237 238 240 241 237 232 237 243 245 247 250 254 259 261 263 265 268 271 272 273 275 276 274 270 268 266 266 269 270 266 261 258 254 252 254 252 246 244 242 237 236 239 244 248 251 253 254 253 248 243 239 239 249 271 284 283 280 280 278 274 273 276 277 271 266
241 242 242 241 241 242 244 244 245 246 246 244 242 240 240 241 242 242 242 240 238 238 239 239 241 240 235 236 241 243 244 246 249 254 258 262 266 269 269 268 269 270 271 270 269 270 269 269 269 265 260 259 259 252 245 247 244 238 238 240 239 237 238 244 249 253 254 253 251 248 244 246 253 266 280 286 282 277 277 277 276 278 279 278 275 270
239 238 238 238 239 239 241 242 244 248 250 251 248 243 238 238 240 240 241 243 242 242 242 241 241 242 241 240 241 242 244 245 248 252 254 257 264 269 268 267 265 265 266 267 268 268 267 268 264 255 253 257 258 253 247 246 241 241 242 237 237 240 239 243 249 253 256 255 257 259 259 261 266 269 273 279 276 267 268 276 280 282 281 278 277 274
234 234 234 234 235 237 239 240 243 247 250 251 248 240 234 235 238 240 241 243 245 245 245 245 245 245 245 246 246 246 248 250 251 253 253 256 261 264 265 264 263 262 264 265 264 263 263 264 261 259 261 260 251 243 247 251 240 242 248 242 240 243 241 243 249 253 255 258 265 270 274 278 277 271 267 274 276 264 264 274 278 279 277 276 277 278
230 230 230 232 233 236 239 240 242 245 247 247 244 238 236 237 240 242 243 244 246 247 246 247 248 249 250 252 252 252 254 256 258 257 256 259 262 260 258 259 262 262 263 264 264 265 267 267 264 266 266 259 245 237 244 250 243 246 248 236 232 235 232 236 244 250 252 255 263 270 272 274 276 275 269 273 278 268 262 269 274 276 276 276 278 279
232 230 229 230 232 236 240 241 241 242 244 246 245 242 242 243 245 245 244 244 246 248 249 249 251 253 255 258 260 259 259 260 262 263 262 263 262 256 254 257 260 261 262 262 264 266 268 267 268 268 259 246 236 229 234 238 239 251 244 230 229 231 232 240 247 250 255 260 267 271 268 265 268 271 269 274 277 263 254 264 272 274 275 278 282 283
234 233 231 230 232 239 242 242 241 241 244 247 250 252 250 247 247 246 243 243 245 248 251 252 254 257 259 261 263 263 263 262 264 264 264 261 256 253 253 255 256 257 258 258 259 261 261 262 266 263 251 239 234 234 235 234 239 257 255 241 237 236 241 250 249 248 254 263 269 272 267 263 267 270 268 272 270 251 245 259 265 267 271 277 282 285
234 232 231 231 234 241 243 241 241 242 243 248 254 258 255 249 247 245 243 243 244 247 251 254 257 259 260 261 262 263 262 261 261 261 260 257 251 250 251 252 254 255 257 259 256 253 254 257 260 257 247 238 238 248 248 241 250 265 270 263 248 242 243 242 242 256 262 265 270 271 268 267 271 269 263 265 264 251 246 253 258 263 269 274 280 282
234 230 231 233 236 241 244 243 243 244 243 246 251 254 253 251 248 245 244 246 249 251 252 255 257 258 260 262 262 261 259 258 257 257 256 253 249 247 247 250 254 256 260 258 245 238 246 252 253 254 249 244 248 259 256 248 252 258 263 268 262 251 248 245 256 275 274 273 277 274 272 273 274 271 267 267 262 249 243 249 259 266 269 271 274 274
232 228 230 235 236 240 244 245 244 244 243 243 244 247 249 247 246 245 245 247 250 252 253 255 257 259 262 265 265 262 258 255 254 254 254 253 251 250 248 251 254 258 264 253 235 240 259 259 254 254 250 249 255 261 260 256 255 253 255 263 269 269 257 253 265 273 271 272 273 272 275 278 280 281 278 269 254 247 253 261 266 269 271 271 269 266
228 225 225 231 234 236 239 242 243 242 242 242 243 245 246 244 244 245 245 248 250 252 254 256 257 259 261 262 263 262 257 252 250 252 253 253 254 254 252 253 255 257 260 251 246 259 269 264 260 256 248 249 256 258 258 256 256 257 255 252 256 269 281 280 272 268 266 262 259 261 266 268 271 272 268 260 254 258 265 268 267 268 271 272 268 265
228 227 224 225 228 230 233 237 240 238 239 242 244 244 243 241 241 242 244 248 252 253 255 257 258 260 261 262 263 264 260 255 252 253 254 254 255 256 255 256 257 256 253 252 255 263 267 266 265 259 254 255 258 259 260 257 256 256 254 250 253 266 279 281 273 266 260 256 255 259 262 263 263 260 258 256 255 255 258 264 269 271 272 271 267 264
231 231 230 228 227 227 229 233 236 236 236 239 241 241 241 240 241 243 245 248 252 253 254 256 258 260 263 266 269 268 263 259 259 260 258 256 253 253 254 255 257 258 258 258 259 262 265 267 266 263 262 261 260 259 259 258 255 250 248 249 253 262 270 273 272 268 264 262 262 264 267 268 266 265 265 262 257 254 257 264 267 267 268 267 262 259
232 234 234 233 230 229 230 232 234 236 237 237 237 238 239 240 243 246 247 248 250 250 251 253 256 259 263 267 270 269 266 266 270 270 266 262 258 257 256 256 258 261 263 264 264 264 264 266 269 271 269 265 260 257 255 254 254 250 248 248 250 255 261 266 272 274 273 271 269 269 270 270 268 270 272 272 265 257 255 259 263 265 266 262 256 255
233 235 237 237 235 234 233 233 235 239 240 239 238 237 238 240 243 246 248 249 249 248 248 252 257 261 262 263 263 264 266 271 275 275 271 266 262 261 260 258 258 259 262 264 266 268 269 271 272 272 273 271 264 256 253 254 256 257 256 256 255 257 259 265 274 278 275 272 272 276 275 271 271 271 273 277 270 258 258 264 268 267 264 259 254 255
233 235 236 238 239 239 239 239 240 243 244 242 239 238 238 240 243 245 247 247 245 245 247 252 258 260 258 257 257 259 263 268 270 270 268 264 261 260 260 259 259 260 262 266 269 272 273 274 272 271 270 269 266 262 261 263 266 267 266 264 263 262 262 266 273 277 274 270 274 281 281 275 272 271 272 276 274 268 269 271 270 264 260 259 260 262
234 236 237 238 240 241 243 244 242 240 243 243 239 235 236 239 241 243 244 243 242 245 250 255 258 257 255 254 255 258 261 265 267 267 267 264 261 261 261 263 264 266 268 271 273 274 273 271 270 270 268 265 263 263 264 265 267 269 271 270 267 264 263 265 269 273 272 271 277 283 283 276 269 268 272 278 277 272 270 268 265 263 260 262 265 267
239 240 241 242 244 243 243 244 242 237 238 241 239 234 234 236 240 241 241 240 243 248 253 257 257 256 256 255 256 258 262 264 266 267 267 267 267 267 268 268 268 268 269 270 271 271 271 269 268 267 266 265 262 260 261 265 270 274 275 274 271 267 264 264 267 269 269 273 279 281 280 275 269 270 277 282 278 272 268 262 259 262 266 267 268 269
242 244 245 247 249 249 249 249 247 243 241 242 243 241 236 235 238 241 241 242 245 250 254 255 256 257 257 257 257 259 260 262 264 265 266 267 268 270 270 269 268 267 266 266 266 267 267 267 266 264 265 265 263 260 260 263 269 274 277 276 273 268 263 262 264 265 267 273 279 279 278 276 274 274 280 284 280 273 270 264 262 267 270 268 267 269
244 246 246 248 250 252 252 250 248 246 245 246 247 245 242 240 239 240 243 247 250 254 255 256 257 258 259 260 261 260 261 261 263 265 266 267 268 269 269 269 268 268 266 264 263 263 263 264 264 264 264 263 262 261 260 260 262 265 271 277 274 263 256 257 261 263 267 273 276 277 277 278 278 278 280 282 281 277 272 267 266 268 269 267 267 269
249 249 249 249 250 252 252 251 248 245 243 244 245 244 242 241 240 238 243 251 256 258 260 260 261 262 264 265 267 267 267 266 266 266 266 266 266 267 268 269 270 270 268 265 262 262 262 264 266 267 267 265 263 262 262 262 261 260 263 271 270 258 255 259 261 263 268 272 275 277 277 278 278 278 279 280 280 279 274 269 266 265 265 265 267 269
255 255 254 252 252 252 253 253 251 248 245 244 245 247 247 247 249 251 256 262 265 266 267 266 266 267 267 268 269 270 270 270 270 269 268 267 266 266 266 266 267 269 269 267 265 264 263 264 267 270 271 270 268 267 266 265 266 265 265 266 265 260 260 262 263 265 268 271 273 275 276 277 277 277 277 277 277 276 275 271 268 264 262 263 265 268
257 258 257 256 254 254 254 255 256 256 255 253 253 255 258 260 263 265 268 270 271 271 270 268 266 266 265 265 266 267 268 268 269 268 268 268 267 267 267 266 265 265 267 268 268 268 268 268 271 272 272 271 270 269 267 266 266 267 268 267 266 265 265 266 266 267 268 270 272 273 274 275 275 274 275 275 274 273 271 269 267 264 261 260 262 264
254 255 256 256 256 257 259 260 261 260 259 259 260 262 264 265 266 268 269 270 271 270 269 266 264 263 262 261 261 262 264 265 265 266 267 267 268 269 270 269 268 267 268 268 270 271 272 274 277 277 275 273 270 268 267 266 265 265 265 265 265 265 266 267 267 268 269 270 271 272 272 272 271 271 272 272 270 268 266 265 264 262 260 259 259 261
252 255 256 257 258 260 261 262 262 261 261 262 262 263 264 265 266 266 267 268 269 269 267 265 263 260 259 258 258 259 260 261 263 264 265 266 267 268 268 268 269 269 270 271 272 273 274 276 278 278 276 273 271 270 270 269 267 265 263 262 262 262 262 263 264 265 266 268 269 270 270 269 268 268 268 267 265 266 267 266 265 264 263 263 264 266
254 256 259 260 261 262 262 261 261 262 263 263 263 264 265 265 265 266 266 267 268 268 267 265 263 260 257 255 255 255 256 258 259 260 262 262 263 263 264 265 266 268 270 271 272 272 272 270 269 270 271 271 271 270 269 268 267 265 262 261 260 260 260 262 263 264 263 264 266 268 270 269 268 268 268 267 267 269 269 268 268 268 268 268 270 271
256 257 259 261 262 262 261 261 262 262 262 263 264 265 266 266 266 265 265 266 266 266 265 264 263 261 259 256 254 254 254 255 256 256 257 259 260 261 262 264 265 267 268 268 269 269 268 266 264 264 266 266 265 263 262 263 263 263 262 260 257 256 258 260 262 263 263 265 268 269 269 268 267 268 269 269 270 270 270 269 270 270 271 272 272 273
256 257 257 258 259 260 260 260 261 262 262 263 264 264 264 264 264 263 264 264 264 264 263 263 262 261 259 258 256 255 255 255 256 256 256 257 258 259 260 261 263 264 265 265 265 265 265 264 262 260 259 259 259 259 260 261 262 263 261 257 251 250 255 258 259 261 264 267 269 268 266 267 266 264 265 265 265 266 266 267 268 269 270 270 271 271
255 256 257 258 259 260 260 261 261 261 262 262 262 263 263 263 263 263 263 264 264 264 263 263 262 261 260 258 257 257 256 256 256 256 257 257 258 258 259 260 260 261 260 260 260 261 260 261 260 259 259 260 260 260 260 260 261 263 262 258 253 254 258 260 259 257 259 263 264 263 263 265 263 261 262 263 263 263 263 262 263 264 266 266 267 268
255 257 258 259 260 261 261 262 261 261 261 261 262 263 263 264 264 264 264 264 265 265 265 265 264 262 260 258 258 258 257 257 257 257 257 258 259 259 259 259 258 258 258 258 259 259 260 261 261 261 261 261 261 260 261 261 262 262 261 259 257 257 259 260 258 255 252 251 250 251 253 256 256 254 255 257 259 261 262 262 261 262 264 265 266 267
254 255 256 257 258 259 260 261 261 262 262 263 263 263 264 265 265 266 266 267 267 266 265 264 262 261 260 260 259 258 257 257 258 258 258 258 258 258 258 258 258 258 258 258 259 259 260 260 261 262 262 262 262 261 260 259 258 258 258 259 259 258 258 259 258 257 254 249 247 247 248 248 249 248 247 248 251 254 258 261 263 264 265 266 267 267
253 253 253 253 254 255 257 258 260 261 262 263 264 264 265 266 267 268 268 267 265 264 263 262 261 260 259 257 255 253 251 250 251 253 253 252 253 254 254 255 257 257 258 258 259 260 260 260 260 261 261 261 260 259 257 255 255 255 256 257 259 259 259 260 260 260 258 254 251 250 250 250 250 251 250 251 252 253 255 258 262 264 266 268 269 268
251 251 251 251 251 252 253 255 257 259 261 262 263 265 266 266 267 267 267 266 265 264 262 262 263 262 260 256 253 252 249 245 244 245 246 247 249 251 252 253 255 256 257 257 258 258 259 259 259 259 260 259 258 258 258 257 257 257 256 256 257 258 259 260 261 261 260 258 255 255 255 255 255 257 258 258 258 257 257 259 261 264 266 268 270 270
252 252 251 251 251 251 252 253 255 257 258 258 259 261 262 262 262 262 263 264 264 262 259 258 258 258 257 255 255 254 253 249 247 247 248 249 251 253 254 255 255 255 256 257 257 256 256 257 259 260 261 261 261 260 260 259 259 259 259 259 259 259 259 260 260 260 260 260 259 259 259 259 260 262 263 264 263 262 261 262 263 265 267 268 269 270
253 253 253 253 253 252 252 253 254 255 257 258 259 259 258 257 256 256 257 258 258 257 257 257 257 257 257 257 258 258 256 254 253 253 253 254 255 255 256 257 257 257 258 258 258 259 259 259 260 261 262 262 262 262 262 261 261 261 261 261 261 261 261 261 262 262 261 261 260 260 261 262 263 265 266 266 266 266 265 266 266 267 268 269 270 270
255 255 255 255 255 255 253 252 251 251 251 251 251 252 252 251 251 251 252 252 252 252 253 254 255 257 258 259 259 260 259 258 257 258 259 259 259 258 258 258 259 260 260 261 262 263 263 263 263 263 263 262 262 262 262 263 263 263 263 263 263 263 263 263 262 262 261 261 261 261 261 261 262 263 264 265 266 266 266 267 268 269 270 270 271 271
257 257 256 257 257 256 255 253 251 250 248 247 245 244 244 245 246 247 249 249 250 250 250 250 251 253 254 255 255 257 258 259 259 260 261 262 262 262 261 261 261 261 262 263 264 264 265 265 265 264 264 263 262 262 263 263 264 264 264 263 263 263 263 264 264 264 263 263 263 263 263 263 262 262 262 263 263 264 265 265 266 267 268 269 270 271
260 259 259 258 259 258 257 256 254 254 253 251 250 249 249 249 249 250 250 251 251 251 251 252 253 254 255 256 257 258 260 262 263 264 265 266 267 267 267 266 265 264 264 264 264 264 263 263 263 263 262 262 262 262 262 263 264 264 264 264 263 263 263 263 264 265 265 265 265 265 264 264 263 263 262 262 262 263 264 264 265 265 266 267 268 269
266 264 262 260 259 259 258 259 259 258 257 256 256 256 256 256 256 255 255 255 256 256 256 256 257 258 259 260 260 261 263 264 266 267 267 268 269 269 269 269 269 268 268 268 268 267 266 265 264 263 262 262 262 262 262 262 263 263 264 264 264 264 264 264 264 264 265 265 266 266 266 265 265 264 264 263 263 263 263 264 264 264 265 266 267 268
272 269 266 263 261 260 259 259 259 259 259 259 259 260 260 260 260 261 261 261 261 261 262 262 263 263 263 263 264 265 265 266 267 267 268 268 269 269 269 269 269 269 269 269 269 269 268 268 268 267 266 265 265 264 263 263 263 264 264 264 265 265 266 266 265 265 265 265 265 265 266 266 266 266 266 265 265 264 264 263 263 264 264 265 266 266
272 270 269 267 266 265 264 264 264 264 264 264 264 264 265 265 265 265 265 265 265 266 266 267 267 268 268 268 269 269 269 269 269 269 269 269 269 269 269 269 269 268 268 268 267 266 266 266 266 266 266 266 266 266 266 265 265 265 265 265 265 265 265 266 266 266 265 265 265 265 265 265 265 266 265 265 265 265 265 265 264 264 264 264 263 263